Location: Bo?a Wola
(50.4192°N, 19.7966°E)
Time: 05:34:32
(UTC+00:00)

Cosmos 1606 - Visible Passes

Search period start: 08 September 2024 00:00
Search period end: 18 September 2024 00:00
Orbit: 447 x 462 km, 82.5° (Epoch: 07 September)

Date Brightness Start Highest point End Pass type
(mag) Time Alt. Az. Time Alt. Az. Time Alt. Az.
08 Sep 5.4 00:48:02 10° E 00:48:49 11° E 00:49:54 10° ENE visible
08 Sep 2.5 02:21:48 39° SW 02:22:47 57° WNW 02:26:12 10° N visible
09 Sep 2.6 01:48:15 61° SE 01:48:33 66° E 01:51:59 10° NNE visible
09 Sep 4.6 03:22:25 10° W 03:23:27 11° WNW 03:24:29 10° NW visible
10 Sep 4.1 01:14:36 30° E 01:14:36 30° E 01:17:27 10° NNE visible
10 Sep 3.9 02:48:21 19° W 02:48:52 20° WNW 02:51:30 10° NNW visible
11 Sep 5.2 00:40:50 16° ENE 00:40:50 16° ENE 00:42:25 10° NE visible
11 Sep 3.1 02:14:35 36° WNW 02:14:35 36° WNW 02:17:35 10° N visible
12 Sep 3.2 01:40:44 47° N 01:40:44 47° N 01:43:18 10° N visible
13 Sep 4.4 01:06:46 28° NE 01:06:46 28° NE 01:08:42 10° NNE visible
13 Sep 4.5 02:40:31 14° WNW 02:40:31 14° WNW 02:42:01 10° NNW visible
14 Sep 5.4 00:32:44 16° NE 00:32:44 16° NE 00:33:43 10° NE visible
14 Sep 4.2 02:06:27 21° NW 02:06:27 21° NW 02:08:12 10° NNW visible
15 Sep 4.4 01:32:19 24° N 01:32:19 24° N 01:33:51 10° N visible
16 Sep 5.1 00:58:05 19° NNE 00:58:05 19° NNE 00:59:10 10° NNE visible
17 Sep 5.8 00:23:45 12° NNE 00:23:45 12° NNE 00:24:09 10° NNE visible
17 Sep 5.0 01:57:28 13° NNW 01:57:28 13° NNW 01:58:03 10° NNW visible
